TimeAKST,TemperatureF,Dew PointF,Humidity,Sea Level PressureIn,VisibilityMPH,Wind Direction,Wind SpeedMPH,Gust SpeedMPH,PrecipitationIn,Events,Conditions,WindDirDegrees,DateUTC
12:16 AM,35.6,30.2,81,29.79,4.0,ESE,8.1,-,N/A,,Overcast,120,2013-02-04 09:16:00
1:56 AM,35.6,30.2,81,29.81,10.0,ESE,6.9,-,N/A,,Overcast,120,2013-02-04 10:56:00
2:16 AM,35.6,30.2,81,29.81,10.0,South,3.5,-,N/A,,Overcast,190,2013-02-04 11:16:00
2:36 AM,35.6,30.2,81,29.81,10.0,SE,5.8,-,N/A,,Mostly Cloudy,130,2013-02-04 11:36:00
2:56 AM,35.6,32.0,87,29.81,10.0,SE,9.2,-,N/A,,Overcast,130,2013-02-04 11:56:00
3:16 AM,35.6,30.2,81,29.82,10.0,SE,5.8,-,N/A,,Overcast,130,2013-02-04 12:16:00
3:36 AM,35.6,30.2,81,29.82,10.0,ESE,8.1,-,N/A,,Overcast,120,2013-02-04 12:36:00
3:56 AM,35.6,30.2,81,29.82,10.0,SSE,6.9,-,N/A,,Overcast,160,2013-02-04 12:56:00
4:16 AM,35.6,32.0,87,29.82,10.0,ESE,8.1,-,N/A,,Overcast,110,2013-02-04 13:16:00
4:36 AM,35.6,30.2,81,29.82,10.0,SSE,8.1,-,N/A,,Overcast,150,2013-02-04 13:36:00
4:56 AM,35.6,32.0,87,29.82,10.0,SE,6.9,-,N/A,,Overcast,130,2013-02-04 13:56:00
5:16 AM,35.6,30.2,81,29.82,10.0,SE,5.8,-,N/A,,Mostly Cloudy,130,2013-02-04 14:16:00
5:36 AM,35.6,30.2,81,29.82,10.0,East,3.5,-,N/A,,Overcast,100,2013-02-04 14:36:00
5:56 AM,35.6,32.0,87,29.82,10.0,ESE,6.9,-,N/A,,Overcast,120,2013-02-04 14:56:00
6:16 AM,35.6,32.0,87,29.82,10.0,ESE,6.9,-,N/A,,Mostly Cloudy,110,2013-02-04 15:16:00
6:36 AM,35.6,30.2,81,29.83,10.0,East,3.5,-,N/A,,Mostly Cloudy,80,2013-02-04 15:36:00
6:56 AM,35.6,30.2,81,29.83,10.0,SE,4.6,-,N/A,,Overcast,130,2013-02-04 15:56:00
7:16 AM,35.6,32.0,87,29.83,10.0,SE,4.6,-,N/A,,Overcast,140,2013-02-04 16:16:00
7:36 AM,35.6,30.2,81,29.83,10.0,ESE,5.8,-,N/A,,Overcast,110,2013-02-04 16:36:00
7:56 AM,35.6,30.2,81,29.83,10.0,ESE,5.8,-,N/A,,Overcast,120,2013-02-04 16:56:00
8:16 AM,35.6,32.0,87,29.84,10.0,East,4.6,-,N/A,,Overcast,100,2013-02-04 17:16:00
8:36 AM,35.6,30.2,81,29.84,10.0,ESE,4.6,-,N/A,,Overcast,120,2013-02-04 17:36:00
8:56 AM,35.6,30.2,81,29.84,10.0,SE,6.9,-,N/A,,Overcast,130,2013-02-04 17:56:00
9:16 AM,35.6,32.0,87,29.84,10.0,SE,3.5,-,N/A,,Overcast,130,2013-02-04 18:16:00
9:36 AM,35.6,32.0,87,29.84,10.0,East,3.5,-,N/A,,Overcast,100,2013-02-04 18:36:00
9:56 AM,35.6,32.0,87,29.84,10.0,East,3.5,-,N/A,,Overcast,90,2013-02-04 18:56:00
10:16 AM,37.4,32.0,81,29.85,10.0,ESE,4.6,-,N/A,,Overcast,120,2013-02-04 19:16:00
10:36 AM,35.6,32.0,87,29.85,10.0,Calm,Calm,-,N/A,,Overcast,0,2013-02-04 19:36:00
10:56 AM,37.4,32.0,81,29.86,10.0,Calm,Calm,-,N/A,,Overcast,0,2013-02-04 19:56:00
11:16 AM,37.4,32.0,81,29.85,10.0,ESE,6.9,-,N/A,,Overcast,110,2013-02-04 20:16:00
11:36 AM,37.4,32.0,81,29.86,10.0,ESE,4.6,-,N/A,,Overcast,120,2013-02-04 20:36:00
11:56 AM,37.4,32.0,81,29.85,10.0,ESE,5.8,-,N/A,,Overcast,120,2013-02-04 20:56:00
12:16 PM,37.4,32.0,81,29.85,10.0,SE,6.9,-,N/A,,Overcast,130,2013-02-04 21:16:00
12:36 PM,37.4,32.0,81,29.84,10.0,ESE,6.9,-,N/A,,Overcast,120,2013-02-04 21:36:00
12:56 PM,37.4,30.2,75,29.84,10.0,SE,5.8,-,N/A,,Overcast,140,2013-02-04 21:56:00
1:16 PM,37.4,32.0,81,29.83,10.0,SE,5.8,-,N/A,,Overcast,130,2013-02-04 22:16:00
1:36 PM,37.4,32.0,81,29.83,10.0,SE,3.5,-,N/A,,Mostly Cloudy,140,2013-02-04 22:36:00
1:56 PM,37.4,30.2,75,29.82,10.0,Calm,Calm,-,N/A,,Scattered Clouds,0,2013-02-04 22:56:00
2:16 PM,39.2,33.8,81,29.82,10.0,Calm,Calm,-,N/A,,Partly Cloudy,0,2013-02-04 23:16:00
2:36 PM,39.2,32.0,75,29.82,10.0,Calm,Calm,-,N/A,,Clear,0,2013-02-04 23:36:00
2:56 PM,37.4,30.2,75,29.81,10.0,WSW,5.8,-,N/A,,Mostly Cloudy,240,2013-02-04 23:56:00
3:16 PM,39.2,30.2,70,29.81,10.0,WSW,3.5,-,N/A,,Overcast,250,2013-02-05 00:16:00
3:36 PM,37.4,33.8,87,29.80,10.0,NW,5.8,-,N/A,,Overcast,320,2013-02-05 00:36:00
3:56 PM,35.6,32.0,87,29.80,10.0,NW,6.9,-,N/A,,Overcast,320,2013-02-05 00:56:00
4:16 PM,35.6,30.2,81,29.79,10.0,NNW,6.9,-,N/A,,Overcast,330,2013-02-05 01:16:00
4:36 PM,35.6,30.2,81,29.79,10.0,North,4.6,-,N/A,,Overcast,360,2013-02-05 01:36:00
4:56 PM,35.6,30.2,81,29.78,10.0,North,10.4,-,N/A,,Overcast,350,2013-02-05 01:56:00
5:16 PM,35.6,30.2,81,29.77,10.0,NW,4.6,-,N/A,,Scattered Clouds,320,2013-02-05 02:16:00
5:36 PM,33.8,30.2,87,29.77,10.0,WNW,3.5,-,N/A,,Clear,290,2013-02-05 02:36:00
5:56 PM,32.0,28.4,87,29.75,10.0,Calm,Calm,-,N/A,,Clear,0,2013-02-05 02:56:00
6:16 PM,32.0,28.4,87,29.74,10.0,NNW,5.8,-,N/A,,Clear,330,2013-02-05 03:16:00
6:36 PM,32.0,28.4,87,29.73,10.0,NNW,3.5,-,N/A,,Clear,330,2013-02-05 03:36:00
6:56 PM,32.0,28.4,87,29.72,10.0,Calm,Calm,-,N/A,,Clear,0,2013-02-05 03:56:00
7:16 PM,32.0,28.4,87,29.71,10.0,Calm,Calm,-,N/A,,Clear,0,2013-02-05 04:16:00
7:36 PM,30.2,26.6,86,29.70,7.0,Calm,Calm,-,N/A,,Clear,0,2013-02-05 04:36:00
7:56 PM,30.2,26.6,86,29.70,2.5,Calm,Calm,-,N/A,,Partly Cloudy,0,2013-02-05 04:56:00
8:16 PM,28.4,24.8,86,29.69,0.5,Calm,Calm,-,N/A,,Overcast,0,2013-02-05 05:16:00
8:36 PM,30.2,26.6,86,29.68,0.2,Calm,Calm,-,N/A,,Overcast,0,2013-02-05 05:36:00
8:56 PM,28.4,26.6,93,29.67,0.5,NNW,4.6,-,N/A,,Overcast,340,2013-02-05 05:56:00
9:16 PM,28.4,24.8,86,29.67,3.0,Calm,Calm,-,N/A,,Partly Cloudy,0,2013-02-05 06:16:00
9:36 PM,28.4,24.8,86,29.65,10.0,NNW,3.5,-,N/A,,Clear,330,2013-02-05 06:36:00
9:56 PM,28.4,24.8,86,29.64,10.0,NNW,5.8,-,N/A,,Clear,330,2013-02-05 06:56:00
10:16 PM,30.2,26.6,86,29.63,10.0,NNW,6.9,-,N/A,,Clear,340,2013-02-05 07:16:00
10:36 PM,30.2,26.6,86,29.62,10.0,NNW,9.2,-,N/A,,Clear,340,2013-02-05 07:36:00
10:56 PM,30.2,26.6,86,29.61,10.0,NNW,9.2,-,N/A,,Clear,340,2013-02-05 07:56:00
11:16 PM,30.2,26.6,86,29.59,10.0,NNW,5.8,-,N/A,,Clear,330,2013-02-05 08:16:00
11:36 PM,30.2,26.6,86,29.59,10.0,North,6.9,-,N/A,,Clear,10,2013-02-05 08:36:00
11:56 PM,30.2,24.8,80,29.58,10.0,NNW,4.6,-,N/A,,Clear,340,2013-02-05 08:56:00